Location: Clanezzo
(45.7500°N, 9.6000°E)
Time: 05:24:43
(UTC+00:00)

Envisat - Pass Details

Date: 27 January 2022
Orbit: 764 x 765 km, 98.2° (Epoch: 22 May)

Event Time Altitude Azimuth Distance (km) Brightness Sun altitude
Rises 03:40:07 0° 20° (NNE) 3,241 6.6 -32.9°
Reaches altitude 10° 03:42:35 10° 29° (NNE) 2,310 5.8 -32.5°
Maximum altitude 03:47:20 38° 97° (E) 1,156 4.3 -31.7°
Drops below altitude 10° 03:52:01 10° 165° (SSE) 2,295 5.5 -30.8°
Sets 03:54:28 0° 173° (S) 3,217 6.3 -30.4°
